contact:dominique.lefevre@mio.osupytheas.fr, maurice.libes@osupytheas.fr, didier.mallarino@osupytheas.fr
Project:EMSO http://www.emso-fr.org/EMSO-France
Depth: 2436.0 m
Title:EMSO Ligure Ouest : Data MII capteur CSTAR
DateTime,Latitude,Longitude,Instrument_Serial,Reference_Counts,Signal_Counts,Corrected_Signal_raw_counts,Calculated_Beam_c_inverse_meters,Internal_thermistor_counts
DateTime,Latitude,Longitude,Instrument_Serial,Reference_Counts,Signal_Counts,Corrected_Signal_raw_counts,Calculated_Beam_c_inverse_meters,Internal_thermistor_counts
2021-09-12T00:00:26,42.805,6.029,CST-1368DR,5230,7142,14626,0.262,551
2021-09-12T00:03:27,42.805,6.029,CST-1368DR,5230,7144,14630,0.261,551
2021-09-12T00:06:29,42.805,6.029,CST-1368DR,5230,7143,14629,0.261,551
2021-09-12T00:09:30,42.805,6.029,CST-1368DR,5230,7144,14630,0.261,551
2021-09-12T00:12:32,42.805,6.029,CST-1368DR,5230,7144,14630,0.261,551
2021-09-12T00:15:34,42.805,6.029,CST-1368DR,5230,7144,14630,0.261,551
2021-09-12T00:18:35,42.805,6.029,CST-1368DR,5230,7143,14628,0.261,551
2021-09-12T00:21:37,42.805,6.029,CST-1368DR,5230,7144,14631,0.261,551
2021-09-12T00:24:38,42.805,6.029,CST-1368DR,5230,7143,14628,0.261,551
2021-09-12T00:27:40,42.805,6.029,CST-1368DR,5230,7143,14629,0.261,551
2021-09-12T00:30:41,42.805,6.029,CST-1368DR,5230,7144,14630,0.261,550
2021-09-12T00:33:43,42.805,6.029,CST-1368DR,5230,7143,14629,0.261,551
2021-09-12T00:36:45,42.805,6.029,CST-1368DR,5230,7142,14627,0.262,551
2021-09-12T00:39:46,42.805,6.029,CST-1368DR,5230,7144,14630,0.261,551
2021-09-12T00:42:48,42.805,6.029,CST-1368DR,5230,7143,14629,0.261,551
2021-09-12T00:45:49,42.805,6.029,CST-1368DR,5230,7144,14631,0.261,551
2021-09-12T00:48:51,42.805,6.029,CST-1368DR,5230,7144,14630,0.261,551
2021-09-12T00:51:53,42.805,6.029,CST-1368DR,5229,7144,14633,0.260,551
2021-09-12T00:54:54,42.805,6.029,CST-1368DR,5230,7144,14630,0.261,551
2021-09-12T00:57:56,42.805,6.029,CST-1368DR,5230,7143,14629,0.261,551
2021-09-12T01:00:57,42.805,6.029,CST-1368DR,5230,7144,14630,0.261,551
2021-09-12T01:03:59,42.805,6.029,CST-1368DR,5230,7144,14630,0.261,551
2021-09-12T01:07:00,42.805,6.029,CST-1368DR,5230,7144,14630,0.261,551
2021-09-12T01:10:02,42.805,6.029,CST-1368DR,5230,7144,14630,0.261,551
2021-09-12T01:13:04,42.805,6.029,CST-1368DR,5230,7144,14630,0.261,551
2021-09-12T01:16:05,42.805,6.029,CST-1368DR,5230,7143,14629,0.261,551
2021-09-12T01:19:07,42.805,6.029,CST-1368DR,5229,7143,14632,0.260,551
2021-09-12T01:22:08,42.805,6.029,CST-1368DR,5230,7141,14625,0.262,551
2021-09-12T01:25:10,42.805,6.029,CST-1368DR,5230,7143,14628,0.261,551
2021-09-12T01:28:11,42.805,6.029,CST-1368DR,5230,7144,14630,0.261,551
2021-09-12T01:31:13,42.805,6.029,CST-1368DR,5229,7143,14631,0.261,551
2021-09-12T01:34:15,42.805,6.029,CST-1368DR,5229,7143,14631,0.261,551
2021-09-12T01:37:16,42.805,6.029,CST-1368DR,5230,7143,14628,0.261,551
2021-09-12T01:40:18,42.805,6.029,CST-1368DR,5229,7143,14631,0.261,551
2021-09-12T01:43:19,42.805,6.029,CST-1368DR,5230,7144,14630,0.261,551
2021-09-12T01:46:21,42.805,6.029,CST-1368DR,5229,7143,14632,0.260,551
2021-09-12T01:49:23,42.805,6.029,CST-1368DR,5229,7142,14630,0.261,551
2021-09-12T01:52:24,42.805,6.029,CST-1368DR,5229,7142,14630,0.261,551
2021-09-12T01:55:26,42.805,6.029,CST-1368DR,5229,7143,14632,0.260,550
2021-09-12T01:58:27,42.805,6.029,CST-1368DR,5229,7143,14631,0.261,551
2021-09-12T02:01:29,42.805,6.029,CST-1368DR,5229,7137,14618,0.264,551
2021-09-12T02:04:30,42.805,6.029,CST-1368DR,5229,7143,14632,0.260,551
2021-09-12T02:07:32,42.805,6.029,CST-1368DR,5229,7143,14632,0.260,551
2021-09-12T02:10:34,42.805,6.029,CST-1368DR,5229,7143,14632,0.260,551
2021-09-12T02:13:35,42.805,6.029,CST-1368DR,5229,7142,14630,0.261,551
2021-09-12T02:16:37,42.805,6.029,CST-1368DR,5229,7143,14632,0.260,551
2021-09-12T02:19:38,42.805,6.029,CST-1368DR,5229,7143,14632,0.260,551
2021-09-12T02:22:40,42.805,6.029,CST-1368DR,5229,7143,14631,0.261,551
2021-09-12T02:25:42,42.805,6.029,CST-1368DR,5229,7143,14631,0.261,551
2021-09-12T02:28:43,42.805,6.029,CST-1368DR,5229,7143,14632,0.260,551
2021-09-12T02:31:45,42.805,6.029,CST-1368DR,5229,7141,14627,0.262,551
2021-09-12T02:34:46,42.805,6.029,CST-1368DR,5229,7143,14631,0.261,551
2021-09-12T02:37:48,42.805,6.029,CST-1368DR,5229,7143,14631,0.261,551
2021-09-12T02:40:49,42.805,6.029,CST-1368DR,5229,7141,14626,0.262,551
2021-09-12T02:43:51,42.805,6.029,CST-1368DR,5229,7143,14631,0.261,551
2021-09-12T02:46:53,42.805,6.029,CST-1368DR,5229,7143,14632,0.260,551
2021-09-12T02:49:54,42.805,6.029,CST-1368DR,5229,7142,14630,0.261,551
2021-09-12T02:52:56,42.805,6.029,CST-1368DR,5229,7143,14632,0.260,551
2021-09-12T02:55:57,42.805,6.029,CST-1368DR,5229,7143,14632,0.260,551
2021-09-12T02:58:59,42.805,6.029,CST-1368DR,5229,7143,14631,0.261,551
2021-09-12T03:02:01,42.805,6.029,CST-1368DR,5229,7143,14632,0.260,551
2021-09-12T03:05:02,42.805,6.029,CST-1368DR,5229,7143,14631,0.261,551
2021-09-12T03:08:04,42.805,6.029,CST-1368DR,5229,7143,14631,0.261,551
2021-09-12T03:11:05,42.805,6.029,CST-1368DR,5229,7143,14631,0.261,551
2021-09-12T03:14:07,42.805,6.029,CST-1368DR,5229,7143,14631,0.261,551
2021-09-12T03:17:08,42.805,6.029,CST-1368DR,5229,7142,14629,0.261,551
2021-09-12T03:20:10,42.805,6.029,CST-1368DR,5229,7142,14630,0.261,551
2021-09-12T03:23:12,42.805,6.029,CST-1368DR,5229,7142,14629,0.261,551
2021-09-12T03:26:13,42.805,6.029,CST-1368DR,5229,7142,14628,0.261,551
2021-09-12T03:29:15,42.805,6.029,CST-1368DR,5229,7142,14630,0.261,550
2021-09-12T03:32:16,42.805,6.029,CST-1368DR,5229,7142,14630,0.261,550
2021-09-12T03:35:18,42.805,6.029,CST-1368DR,5229,7142,14630,0.261,551
2021-09-12T03:38:19,42.805,6.029,CST-1368DR,5229,7141,14628,0.261,551
2021-09-12T03:41:21,42.805,6.029,CST-1368DR,5229,7142,14630,0.261,551
2021-09-12T03:44:23,42.805,6.029,CST-1368DR,5229,7142,14630,0.261,551
2021-09-12T03:47:24,42.805,6.029,CST-1368DR,5229,7142,14629,0.261,551
2021-09-12T03:50:26,42.805,6.029,CST-1368DR,5229,7142,14630,0.261,551
2021-09-12T03:53:27,42.805,6.029,CST-1368DR,5229,7142,14630,0.261,551
2021-09-12T03:56:29,42.805,6.029,CST-1368DR,5229,7142,14630,0.261,551
2021-09-12T03:59:31,42.805,6.029,CST-1368DR,5229,7141,14626,0.262,551
2021-09-12T04:02:32,42.805,6.029,CST-1368DR,5229,7142,14628,0.261,551
2021-09-12T04:05:34,42.805,6.029,CST-1368DR,5229,7142,14629,0.261,551
2021-09-12T04:08:35,42.805,6.029,CST-1368DR,5229,7142,14630,0.261,551
2021-09-12T04:11:37,42.805,6.029,CST-1368DR,5229,7140,14624,0.263,551
2021-09-12T04:14:38,42.805,6.029,CST-1368DR,5229,7142,14630,0.261,551
2021-09-12T04:17:40,42.805,6.029,CST-1368DR,5229,7141,14628,0.261,551
2021-09-12T04:20:42,42.805,6.029,CST-1368DR,5229,7141,14628,0.261,551
2021-09-12T04:23:43,42.805,6.029,CST-1368DR,5229,7140,14626,0.262,551
2021-09-12T04:26:45,42.805,6.029,CST-1368DR,5229,7141,14628,0.261,551
2021-09-12T04:29:46,42.805,6.029,CST-1368DR,5229,7140,14626,0.262,551
2021-09-12T04:32:48,42.805,6.029,CST-1368DR,5229,7142,14628,0.261,551
2021-09-12T04:35:49,42.805,6.029,CST-1368DR,5229,7140,14624,0.263,551
2021-09-12T04:38:51,42.805,6.029,CST-1368DR,5229,7140,14624,0.263,551
2021-09-12T04:41:53,42.805,6.029,CST-1368DR,5229,7140,14625,0.262,551
2021-09-12T04:44:54,42.805,6.029,CST-1368DR,5229,7140,14626,0.262,551
2021-09-12T04:47:56,42.805,6.029,CST-1368DR,5229,7141,14627,0.262,551
2021-09-12T04:50:57,42.805,6.029,CST-1368DR,5229,7141,14626,0.262,551
2021-09-12T04:53:59,42.805,6.029,CST-1368DR,5229,7141,14626,0.262,551
2021-09-12T04:57:01,42.805,6.029,CST-1368DR,5229,7141,14627,0.262,551
2021-09-12T05:00:02,42.805,6.029,CST-1368DR,5229,7141,14627,0.262,551
2021-09-12T05:03:04,42.805,6.029,CST-1368DR,5229,7140,14626,0.262,551
2021-09-12T05:06:05,42.805,6.029,CST-1368DR,5229,7137,14618,0.264,551
2021-09-12T05:09:07,42.805,6.029,CST-1368DR,5229,7137,14619,0.264,551
2021-09-12T05:12:08,42.805,6.029,CST-1368DR,5229,7136,14617,0.264,551
2021-09-12T05:15:10,42.805,6.029,CST-1368DR,5229,7140,14625,0.262,551
2021-09-12T05:18:12,42.805,6.029,CST-1368DR,5229,7140,14625,0.262,551
2021-09-12T05:21:13,42.805,6.029,CST-1368DR,5229,7140,14625,0.262,551
2021-09-12T05:24:15,42.805,6.029,CST-1368DR,5229,7140,14624,0.263,551
2021-09-12T05:27:16,42.805,6.029,CST-1368DR,5229,7140,14625,0.262,551
2021-09-12T05:30:18,42.805,6.029,CST-1368DR,5229,7140,14625,0.262,551
2021-09-12T05:33:20,42.805,6.029,CST-1368DR,5229,7139,14622,0.263,550
2021-09-12T05:36:21,42.805,6.029,CST-1368DR,5229,7138,14622,0.263,551
2021-09-12T05:39:23,42.805,6.029,CST-1368DR,5229,7141,14626,0.262,551
2021-09-12T05:42:24,42.805,6.029,CST-1368DR,5229,7141,14626,0.262,551
2021-09-12T05:45:26,42.805,6.029,CST-1368DR,5229,7140,14624,0.263,551
2021-09-12T05:48:27,42.805,6.029,CST-1368DR,5229,7138,14622,0.263,551
2021-09-12T05:51:29,42.805,6.029,CST-1368DR,5229,7140,14626,0.262,551
2021-09-12T05:54:31,42.805,6.029,CST-1368DR,5229,7139,14623,0.263,551
2021-09-12T05:57:32,42.805,6.029,CST-1368DR,5229,7140,14624,0.263,551
2021-09-12T06:00:34,42.805,6.029,CST-1368DR,5229,7139,14624,0.263,551
2021-09-12T06:03:35,42.805,6.029,CST-1368DR,5229,7140,14626,0.262,551
2021-09-12T06:06:37,42.805,6.029,CST-1368DR,5229,7140,14624,0.263,551
2021-09-12T06:09:38,42.805,6.029,CST-1368DR,5229,7137,14620,0.264,551
2021-09-12T06:12:40,42.805,6.029,CST-1368DR,5229,7140,14625,0.262,551
2021-09-12T06:15:42,42.805,6.029,CST-1368DR,5229,7139,14624,0.263,551
2021-09-12T06:18:43,42.805,6.029,CST-1368DR,5229,7139,14624,0.263,551
2021-09-12T06:21:45,42.805,6.029,CST-1368DR,5229,7139,14624,0.263,551
2021-09-12T06:24:46,42.805,6.029,CST-1368DR,5229,7140,14625,0.262,551
2021-09-12T06:27:48,42.805,6.029,CST-1368DR,5229,7139,14624,0.263,551
2021-09-12T06:30:50,42.805,6.029,CST-1368DR,5229,7139,14623,0.263,551
2021-09-12T06:33:51,42.805,6.029,CST-1368DR,5229,7140,14625,0.262,551
2021-09-12T06:36:53,42.805,6.029,CST-1368DR,5229,7140,14625,0.262,551
2021-09-12T06:39:54,42.805,6.029,CST-1368DR,5229,7139,14624,0.263,551
2021-09-12T06:42:56,42.805,6.029,CST-1368DR,5229,7140,14624,0.263,551
2021-09-12T06:45:57,42.805,6.029,CST-1368DR,5229,7137,14619,0.264,551
2021-09-12T06:48:59,42.805,6.029,CST-1368DR,5229,7139,14623,0.263,551
2021-09-12T06:52:01,42.805,6.029,CST-1368DR,5229,7140,14624,0.263,551
2021-09-12T06:55:02,42.805,6.029,CST-1368DR,5229,7140,14624,0.263,551
2021-09-12T06:58:04,42.805,6.029,CST-1368DR,5229,7140,14624,0.263,550
2021-09-12T07:01:05,42.805,6.029,CST-1368DR,5229,7139,14623,0.263,551
2021-09-12T07:04:07,42.805,6.029,CST-1368DR,5229,7139,14624,0.263,551
2021-09-12T07:07:09,42.805,6.029,CST-1368DR,5229,7140,14624,0.263,551
2021-09-12T07:10:10,42.805,6.029,CST-1368DR,5229,7139,14624,0.263,551
2021-09-12T07:13:12,42.805,6.029,CST-1368DR,5229,7139,14623,0.263,551
2021-09-12T07:16:13,42.805,6.029,CST-1368DR,5229,7137,14619,0.264,551
2021-09-12T07:19:15,42.805,6.029,CST-1368DR,5229,7139,14622,0.263,551
2021-09-12T07:22:16,42.805,6.029,CST-1368DR,5229,7139,14624,0.263,551
2021-09-12T07:25:18,42.805,6.029,CST-1368DR,5229,7139,14622,0.263,551
2021-09-12T07:28:20,42.805,6.029,CST-1368DR,5229,7138,14621,0.263,551
2021-09-12T07:31:21,42.805,6.029,CST-1368DR,5229,7139,14622,0.263,551
2021-09-12T07:34:23,42.805,6.029,CST-1368DR,5229,7140,14625,0.262,551
2021-09-12T07:37:24,42.805,6.029,CST-1368DR,5229,7140,14624,0.263,551
2021-09-12T07:40:26,42.805,6.029,CST-1368DR,5229,7135,14616,0.265,551
2021-09-12T07:43:27,42.805,6.029,CST-1368DR,5229,7139,14624,0.263,551
2021-09-12T07:46:29,42.805,6.029,CST-1368DR,5229,7139,14622,0.263,551
2021-09-12T07:49:31,42.805,6.029,CST-1368DR,5229,7140,14624,0.263,551
2021-09-12T07:52:32,42.805,6.029,CST-1368DR,5229,7140,14624,0.263,551
2021-09-12T07:55:34,42.805,6.029,CST-1368DR,5229,7139,14623,0.263,551
2021-09-12T07:58:35,42.805,6.029,CST-1368DR,5229,7140,14624,0.263,551
2021-09-12T08:01:37,42.805,6.029,CST-1368DR,5229,7140,14625,0.262,551
2021-09-12T08:04:39,42.805,6.029,CST-1368DR,5229,7140,14625,0.262,551
2021-09-12T08:07:40,42.805,6.029,CST-1368DR,5229,7140,14625,0.262,551
2021-09-12T08:10:42,42.805,6.029,CST-1368DR,5229,7140,14625,0.262,551
2021-09-12T08:13:43,42.805,6.029,CST-1368DR,5229,7141,14626,0.262,551
2021-09-12T08:16:45,42.805,6.029,CST-1368DR,5229,7140,14625,0.262,551
2021-09-12T08:19:46,42.805,6.029,CST-1368DR,5229,7140,14625,0.262,551
2021-09-12T08:22:48,42.805,6.029,CST-1368DR,5229,7141,14627,0.262,551
2021-09-12T08:25:50,42.805,6.029,CST-1368DR,5229,7140,14626,0.262,551
2021-09-12T08:28:51,42.805,6.029,CST-1368DR,5229,7141,14626,0.262,551
2021-09-12T08:31:53,42.805,6.029,CST-1368DR,5229,7140,14625,0.262,551
2021-09-12T08:34:54,42.805,6.029,CST-1368DR,5229,7141,14626,0.262,551
2021-09-12T08:37:56,42.805,6.029,CST-1368DR,5229,7141,14626,0.262,551
2021-09-12T08:40:58,42.805,6.029,CST-1368DR,5229,7140,14625,0.262,551
2021-09-12T08:43:59,42.805,6.029,CST-1368DR,5229,7139,14622,0.263,551
2021-09-12T08:47:01,42.805,6.029,CST-1368DR,5229,7139,14623,0.263,551
2021-09-12T08:50:02,42.805,6.029,CST-1368DR,5229,7140,14625,0.262,551
2021-09-12T08:53:04,42.805,6.029,CST-1368DR,5229,7139,14624,0.263,551
2021-09-12T08:56:05,42.805,6.029,CST-1368DR,5229,7139,14623,0.263,551
2021-09-12T08:59:07,42.805,6.029,CST-1368DR,5229,7139,14624,0.263,551
2021-09-12T09:02:09,42.805,6.029,CST-1368DR,5229,7140,14625,0.262,551
2021-09-12T09:05:10,42.805,6.029,CST-1368DR,5229,7140,14625,0.262,551
2021-09-12T09:08:12,42.805,6.029,CST-1368DR,5229,7135,14615,0.265,551
2021-09-12T09:11:13,42.805,6.029,CST-1368DR,5229,7140,14626,0.262,551
2021-09-12T09:14:15,42.805,6.029,CST-1368DR,5229,7140,14625,0.262,551
2021-09-12T09:17:17,42.805,6.029,CST-1368DR,5229,7139,14623,0.263,551
2021-09-12T09:20:18,42.805,6.029,CST-1368DR,5229,7138,14622,0.263,551
2021-09-12T09:23:20,42.805,6.029,CST-1368DR,5229,7140,14624,0.263,551
2021-09-12T09:26:21,42.805,6.029,CST-1368DR,5229,7140,14625,0.262,551
2021-09-12T09:29:23,42.805,6.029,CST-1368DR,5229,7139,14623,0.263,551
2021-09-12T09:32:24,42.805,6.029,CST-1368DR,5229,7140,14625,0.262,551
2021-09-12T09:35:26,42.805,6.029,CST-1368DR,5229,7140,14625,0.262,551
2021-09-12T09:38:28,42.805,6.029,CST-1368DR,5229,7139,14624,0.263,551
2021-09-12T09:41:29,42.805,6.029,CST-1368DR,5229,7139,14624,0.263,551
2021-09-12T09:44:31,42.805,6.029,CST-1368DR,5229,7139,14624,0.263,551
2021-09-12T09:47:32,42.805,6.029,CST-1368DR,5229,7140,14625,0.262,551
2021-09-12T09:50:34,42.805,6.029,CST-1368DR,5229,7140,14624,0.263,551
2021-09-12T09:53:35,42.805,6.029,CST-1368DR,5229,7140,14625,0.262,551
2021-09-12T09:56:37,42.805,6.029,CST-1368DR,5229,7139,14624,0.263,551
2021-09-12T09:59:39,42.805,6.029,CST-1368DR,5229,7140,14624,0.263,551
2021-09-12T10:02:40,42.805,6.029,CST-1368DR,5229,7139,14623,0.263,551
2021-09-12T10:05:42,42.805,6.029,CST-1368DR,5229,7139,14624,0.263,551
2021-09-12T10:08:43,42.805,6.029,CST-1368DR,5229,7138,14621,0.263,551
2021-09-12T10:11:45,42.805,6.029,CST-1368DR,5228,7139,14626,0.262,551
2021-09-12T10:14:47,42.805,6.029,CST-1368DR,5228,7139,14626,0.262,551
2021-09-12T10:17:48,42.805,6.029,CST-1368DR,5228,7140,14627,0.262,551
2021-09-12T10:20:50,42.805,6.029,CST-1368DR,5228,7137,14621,0.263,551
2021-09-12T10:23:51,42.805,6.029,CST-1368DR,5228,7138,14624,0.263,551
2021-09-12T10:26:53,42.805,6.029,CST-1368DR,5228,7138,14624,0.263,551
2021-09-12T10:29:54,42.805,6.029,CST-1368DR,5228,7139,14625,0.262,551
2021-09-12T10:32:56,42.805,6.029,CST-1368DR,5228,7139,14626,0.262,551
2021-09-12T10:35:58,42.805,6.029,CST-1368DR,5228,7137,14622,0.263,551
2021-09-12T10:38:59,42.805,6.029,CST-1368DR,5228,7139,14626,0.262,551
2021-09-12T10:42:01,42.805,6.029,CST-1368DR,5228,7139,14625,0.262,551
2021-09-12T10:45:02,42.805,6.029,CST-1368DR,5228,7139,14625,0.262,551
2021-09-12T10:48:04,42.805,6.029,CST-1368DR,5229,7138,14622,0.263,551
2021-09-12T10:51:06,42.805,6.029,CST-1368DR,5228,7136,14620,0.264,551
2021-09-12T10:54:07,42.805,6.029,CST-1368DR,5228,7138,14624,0.263,551
2021-09-12T10:57:09,42.805,6.029,CST-1368DR,5228,7138,14624,0.263,551
2021-09-12T11:00:10,42.805,6.029,CST-1368DR,5228,7139,14626,0.262,551
2021-09-12T11:03:12,42.805,6.029,CST-1368DR,5228,7138,14624,0.263,551
2021-09-12T11:06:13,42.805,6.029,CST-1368DR,5228,7139,14626,0.262,551
2021-09-12T11:09:15,42.805,6.029,CST-1368DR,5228,7138,14623,0.263,551
2021-09-12T11:12:17,42.805,6.029,CST-1368DR,5228,7139,14625,0.262,551
2021-09-12T11:15:18,42.805,6.029,CST-1368DR,5228,7138,14624,0.263,551
2021-09-12T11:18:20,42.805,6.029,CST-1368DR,5228,7138,14623,0.263,551
2021-09-12T11:21:21,42.805,6.029,CST-1368DR,5229,7138,14621,0.263,551
2021-09-12T11:24:23,42.805,6.029,CST-1368DR,5228,7137,14622,0.263,551
2021-09-12T11:27:25,42.805,6.029,CST-1368DR,5228,7138,14623,0.263,551
2021-09-12T11:30:26,42.805,6.029,CST-1368DR,5228,7137,14622,0.263,551
2021-09-12T11:33:28,42.805,6.029,CST-1368DR,5228,7138,14624,0.263,551
2021-09-12T11:36:29,42.805,6.029,CST-1368DR,5229,7138,14621,0.263,551
2021-09-12T11:39:31,42.805,6.029,CST-1368DR,5228,7136,14620,0.264,551
2021-09-12T11:42:32,42.805,6.029,CST-1368DR,5228,7137,14622,0.263,551
2021-09-12T11:45:34,42.805,6.029,CST-1368DR,5228,7138,14623,0.263,551
2021-09-12T11:48:36,42.805,6.029,CST-1368DR,5228,7138,14623,0.263,551
2021-09-12T11:51:37,42.805,6.029,CST-1368DR,5228,7134,14615,0.265,551
2021-09-12T11:54:39,42.805,6.029,CST-1368DR,5228,7137,14622,0.263,551
2021-09-12T11:57:40,42.805,6.029,CST-1368DR,5228,7138,14623,0.263,551
2021-09-12T12:00:42,42.805,6.029,CST-1368DR,5228,7138,14623,0.263,551
2021-09-12T12:03:43,42.805,6.029,CST-1368DR,5228,7138,14623,0.263,551
2021-09-12T12:06:45,42.805,6.029,CST-1368DR,5228,7137,14622,0.263,551
2021-09-12T12:09:47,42.805,6.029,CST-1368DR,5228,7138,14623,0.263,551
2021-09-12T12:12:48,42.805,6.029,CST-1368DR,5228,7136,14620,0.264,551
2021-09-12T12:15:50,42.805,6.029,CST-1368DR,5228,7137,14622,0.263,551
2021-09-12T12:18:51,42.805,6.029,CST-1368DR,5228,7136,14620,0.264,551
2021-09-12T12:21:53,42.805,6.029,CST-1368DR,5228,7136,14620,0.264,551
2021-09-12T12:24:55,42.805,6.029,CST-1368DR,5228,7138,14624,0.263,551
2021-09-12T12:27:56,42.805,6.029,CST-1368DR,5228,7138,14624,0.263,551
2021-09-12T12:30:58,42.805,6.029,CST-1368DR,5228,7137,14622,0.263,551
2021-09-12T12:33:59,42.805,6.029,CST-1368DR,5228,7136,14620,0.264,551
2021-09-12T12:37:01,42.805,6.029,CST-1368DR,5228,7137,14622,0.263,551
2021-09-12T12:40:02,42.805,6.029,CST-1368DR,5228,7137,14621,0.263,551
2021-09-12T12:43:04,42.805,6.029,CST-1368DR,5228,7139,14625,0.262,551
2021-09-12T12:46:06,42.805,6.029,CST-1368DR,5228,7139,14625,0.262,551
2021-09-12T12:49:07,42.805,6.029,CST-1368DR,5228,7137,14622,0.263,551
2021-09-12T12:52:09,42.805,6.029,CST-1368DR,5228,7137,14621,0.263,551
2021-09-12T12:55:10,42.805,6.029,CST-1368DR,5228,7139,14626,0.262,551
2021-09-12T12:58:12,42.805,6.029,CST-1368DR,5228,7138,14623,0.263,551
2021-09-12T13:01:14,42.805,6.029,CST-1368DR,5228,7138,14624,0.263,551
2021-09-12T13:04:15,42.805,6.029,CST-1368DR,5228,7136,14620,0.264,551
2021-09-12T13:07:17,42.805,6.029,CST-1368DR,5228,7138,14623,0.263,551
2021-09-12T13:10:18,42.805,6.029,CST-1368DR,5228,7138,14624,0.263,551
2021-09-12T13:13:20,42.805,6.029,CST-1368DR,5228,7139,14626,0.262,551
2021-09-12T13:16:21,42.805,6.029,CST-1368DR,5228,7139,14626,0.262,551
2021-09-12T13:19:23,42.805,6.029,CST-1368DR,5228,7139,14625,0.262,551
2021-09-12T13:22:25,42.805,6.029,CST-1368DR,5228,7138,14624,0.263,550
2021-09-12T13:25:26,42.805,6.029,CST-1368DR,5228,7138,14623,0.263,551
2021-09-12T13:28:28,42.805,6.029,CST-1368DR,5228,7139,14625,0.262,551
2021-09-12T13:31:29,42.805,6.029,CST-1368DR,5228,7138,14624,0.263,551
2021-09-12T13:34:31,42.805,6.029,CST-1368DR,5228,7138,14624,0.263,551
2021-09-12T13:37:32,42.805,6.029,CST-1368DR,5228,7138,14624,0.263,551
2021-09-12T13:40:34,42.805,6.029,CST-1368DR,5228,7138,14623,0.263,551
2021-09-12T13:43:36,42.805,6.029,CST-1368DR,5228,7138,14623,0.263,551
2021-09-12T13:46:37,42.805,6.029,CST-1368DR,5228,7138,14624,0.263,551
2021-09-12T13:49:39,42.805,6.029,CST-1368DR,5228,7138,14623,0.263,551
2021-09-12T13:52:40,42.805,6.029,CST-1368DR,5228,7138,14624,0.263,551
2021-09-12T13:55:42,42.805,6.029,CST-1368DR,5228,7137,14622,0.263,551
2021-09-12T13:58:44,42.805,6.029,CST-1368DR,5228,7138,14624,0.263,551
2021-09-12T14:01:45,42.805,6.029,CST-1368DR,5228,7138,14624,0.263,551
2021-09-12T14:04:47,42.805,6.029,CST-1368DR,5228,7137,14622,0.263,551
2021-09-12T14:07:48,42.805,6.029,CST-1368DR,5228,7138,14624,0.263,551
2021-09-12T14:10:50,42.805,6.029,CST-1368DR,5228,7138,14624,0.263,551
2021-09-12T14:13:51,42.805,6.029,CST-1368DR,5228,7138,14623,0.263,551
2021-09-12T14:16:53,42.805,6.029,CST-1368DR,5228,7137,14622,0.263,551
2021-09-12T14:19:55,42.805,6.029,CST-1368DR,5228,7137,14621,0.263,551
2021-09-12T14:22:56,42.805,6.029,CST-1368DR,5228,7137,14621,0.263,551
2021-09-12T14:25:58,42.805,6.029,CST-1368DR,5228,7138,14623,0.263,551
2021-09-12T14:28:59,42.805,6.029,CST-1368DR,5228,7136,14620,0.264,551
2021-09-12T14:32:01,42.805,6.029,CST-1368DR,5228,7137,14622,0.263,550
2021-09-12T14:35:02,42.805,6.029,CST-1368DR,5228,7137,14622,0.263,551
2021-09-12T14:38:04,42.805,6.029,CST-1368DR,5228,7137,14622,0.263,551
2021-09-12T14:41:06,42.805,6.029,CST-1368DR,5228,7137,14621,0.263,551
2021-09-12T14:44:07,42.805,6.029,CST-1368DR,5228,7137,14622,0.263,551
2021-09-12T14:47:09,42.805,6.029,CST-1368DR,5228,7137,14621,0.263,551
2021-09-12T14:50:10,42.805,6.029,CST-1368DR,5228,7137,14622,0.263,551
2021-09-12T14:53:12,42.805,6.029,CST-1368DR,5228,7137,14622,0.263,551
2021-09-12T14:56:14,42.805,6.029,CST-1368DR,5228,7137,14622,0.263,551
2021-09-12T14:59:15,42.805,6.029,CST-1368DR,5228,7137,14621,0.263,551
2021-09-12T15:02:17,42.805,6.029,CST-1368DR,5228,7136,14620,0.264,551
2021-09-12T15:05:18,42.805,6.029,CST-1368DR,5228,7137,14622,0.263,551
2021-09-12T15:08:20,42.805,6.029,CST-1368DR,5228,7136,14620,0.264,551
2021-09-12T15:11:21,42.805,6.029,CST-1368DR,5228,7137,14622,0.263,551
2021-09-12T15:14:23,42.805,6.029,CST-1368DR,5228,7137,14622,0.263,551
2021-09-12T15:17:25,42.805,6.029,CST-1368DR,5228,7137,14621,0.263,551
2021-09-12T15:20:26,42.805,6.029,CST-1368DR,5228,7136,14619,0.264,551
2021-09-12T15:23:28,42.805,6.029,CST-1368DR,5228,7137,14621,0.263,551
2021-09-12T15:26:29,42.805,6.029,CST-1368DR,5228,7137,14621,0.263,551
2021-09-12T15:29:31,42.805,6.029,CST-1368DR,5228,7137,14621,0.263,551
2021-09-12T15:32:33,42.805,6.029,CST-1368DR,5228,7136,14620,0.264,551
2021-09-12T15:35:34,42.805,6.029,CST-1368DR,5228,7136,14619,0.264,551
2021-09-12T15:38:36,42.805,6.029,CST-1368DR,5228,7135,14618,0.264,551
2021-09-12T15:41:37,42.805,6.029,CST-1368DR,5228,7136,14619,0.264,551
2021-09-12T15:44:39,42.805,6.029,CST-1368DR,5228,7136,14620,0.264,551
2021-09-12T15:47:40,42.805,6.029,CST-1368DR,5228,7137,14621,0.263,551
2021-09-12T15:50:42,42.805,6.029,CST-1368DR,5228,7137,14622,0.263,551
2021-09-12T15:53:44,42.805,6.029,CST-1368DR,5228,7135,14617,0.264,551
2021-09-12T15:56:45,42.805,6.029,CST-1368DR,5228,7137,14621,0.263,551
2021-09-12T15:59:47,42.805,6.029,CST-1368DR,5228,7136,14620,0.264,551
2021-09-12T16:02:48,42.805,6.029,CST-1368DR,5228,7135,14617,0.264,551
2021-09-12T16:05:50,42.805,6.029,CST-1368DR,5228,7133,14613,0.266,551
2021-09-12T16:08:52,42.805,6.029,CST-1368DR,5228,7136,14619,0.264,550
2021-09-12T16:11:53,42.805,6.029,CST-1368DR,5228,7137,14621,0.263,551
2021-09-12T16:14:55,42.805,6.029,CST-1368DR,5228,7136,14620,0.264,551
2021-09-12T16:17:56,42.805,6.029,CST-1368DR,5228,7136,14619,0.264,551
2021-09-12T16:20:58,42.805,6.029,CST-1368DR,5228,7137,14621,0.263,550
2021-09-12T16:23:59,42.805,6.029,CST-1368DR,5228,7136,14619,0.264,551
2021-09-12T16:27:01,42.805,6.029,CST-1368DR,5228,7136,14620,0.264,551
2021-09-12T16:30:03,42.805,6.029,CST-1368DR,5228,7137,14621,0.263,551
2021-09-12T16:33:04,42.805,6.029,CST-1368DR,5228,7136,14620,0.264,551
2021-09-12T16:36:06,42.805,6.029,CST-1368DR,5228,7136,14620,0.264,550
2021-09-12T16:39:07,42.805,6.029,CST-1368DR,5228,7137,14621,0.263,551
2021-09-12T16:42:09,42.805,6.029,CST-1368DR,5228,7136,14619,0.264,551
2021-09-12T16:45:10,42.805,6.029,CST-1368DR,5228,7136,14619,0.264,551
2021-09-12T16:48:12,42.805,6.029,CST-1368DR,5228,7136,14619,0.264,551
2021-09-12T16:51:14,42.805,6.029,CST-1368DR,5228,7136,14620,0.264,551